Regional Weather Roundup
Issued by NWS

Home | Current Version | Previous Version | Graphics & Text | Print | Product List | Glossary Off
Versions: 1 2 3 4 5 6 7 8 9 10 11 12 13 14 15 16 17 18 19 20 21 22 23 24 25 26 27 28 29 30 31 32 33 34 35 36 37 38 39 40 41 42 43 44 45 46 47 48 49 50

000
ASUS43 KMKX 191821
RWRWI

WISCONSIN REGIONAL WEATHER ROUNDUP
NATIONAL WEATHER SERVICE MILWAUKEE/SULLIVAN WI
1200 PM CST FRI DEC 19 2014

NOTE: "FAIR" INDICATES FEW OR NO CLOUDS BELOW 12,000 FEET WITH NO
SIGNIFICANT WEATHER AND/OR OBSTRUCTIONS TO VISIBILITY.

WIZ001-002-006>008-014>016-023>028-191900-
NORTHWEST WISCONSIN

CITY           SKY/WX    TMP DP  RH WIND       PRES   REMARKS
SUPERIOR ARPT  LGT SNOW  25  22  88 S5        30.24F WCI  19
6HR MIN TEMP:  23; 6HR MAX TEMP:  25;

ASHLAND        CLOUDY    24  20  84 SW5       30.25F WCI  18
6HR MIN TEMP:  22; 6HR MAX TEMP:  24;

HAYWARD        LGT SNOW  24  20  84 S6        30.22F FOG     WCI  17
6HR MIN TEMP:  21; 6HR MAX TEMP:  23; 6HR PCP: TRACE;

SIREN          LGT SNOW  25  20  83 S5        30.23F WCI  19
6HR MIN TEMP:  22; 6HR MAX TEMP:  25;

CUMBERLAND     LGT SNOW  25  19  80 S5        30.22F WCI  19
RICE LAKE      CLOUDY    26  20  81 SE7       30.25F WCI  18
6HR MIN TEMP:  23; 6HR MAX TEMP:  26;

CHETEK         CLOUDY    25  20  83 SE8       30.24F WCI  16
6HR MIN TEMP:  23; 6HR MAX TEMP:  25;

LADYSMITH      CLOUDY    25  22  89 S3        30.25F
6HR MIN TEMP:  23; 6HR MAX TEMP:  25;

EAU CLAIRE     CLOUDY    26  19  74 S8        30.25F WCI  18
6HR MIN TEMP:  23; 6HR MAX TEMP:  26;

MENOMONIE      CLOUDY    27  20  73 S6        30.26S WCI  21
6HR MIN TEMP:  23; 6HR MAX TEMP:  27;

NEW RICHMOND   CLOUDY    26  21  83 SE7       30.24S WCI  18
6HR MIN TEMP:  22; 6HR MAX TEMP:  26;

OSCEOLA        CLOUDY    26  22  83 SE7       30.26F WCI  19
6HR MIN TEMP:  22; 6HR MAX TEMP:  26;

$$

WIZ003>005-009-010-017-018-191900-
NORTH CENTRAL WISCONSIN

CITY           SKY/WX    TMP DP  RH WIND       PRES   REMARKS
MANITOWISH WTR CLOUDY    20  20  98 S6        30.21F WCI  12
6HR MIN TEMP:  13; 6HR MAX TEMP:  20;

ARBOR VITAE    CLOUDY    22  20  92 S3        30.21F
6HR MIN TEMP:  13; 6HR MAX TEMP:  22;

WOODRUFF       CLOUDY    22  20  92 S3        30.21F
6HR MIN TEMP:  13; 6HR MAX TEMP:  22;

RHINELANDER    PTSUNNY   19  17  92 CALM      30.22F
6HR MIN TEMP:   2; 6HR MAX TEMP:  19;

EAGLE RIVER    MOSUNNY   20  19  97 CALM      30.21F
6HR MIN TEMP:  -1; 6HR MAX TEMP:  20;

LAND O LAKES   CLOUDY    20  19  95 SE3       30.22F
6HR MIN TEMP:  -3; 6HR MAX TEMP:  20;

PHILLIPS       CLOUDY    22  19  90 SW5       30.21F WCI  15
6HR MIN TEMP:  18; 6HR MAX TEMP:  22;

TOMAHAWK       CLOUDY    23  20  87 CALM      30.23F
6HR MIN TEMP:  11; 6HR MAX TEMP:  23;

MEDFORD        CLOUDY    22  20  91 S7        30.22F WCI  13
6HR MIN TEMP:  21; 6HR MAX TEMP:  22;

MERRILL        CLOUDY    24  18  77 CALM      30.24F
6HR MIN TEMP:  11; 6HR MAX TEMP:  24;

$$

WIZ029-030-035-036-043>047-191900-
CENTRAL WISCONSIN

CITY           SKY/WX    TMP DP  RH WIND       PRES   REMARKS
WAUSAU         CLOUDY    25  19  78 S5        30.24S WCI  19
6HR MIN TEMP:  15; 6HR MAX TEMP:  25;

MOSINEE        CLOUDY    25  19  80 S5        30.26  WCI  19
MARSHFIELD     CLOUDY    24  20  84 CALM      30.24F
6HR MIN TEMP:  23; 6HR MAX TEMP:  24;

STEVENS POINT  PTSUNNY   24  16  72 CALM      30.27S
6HR MIN TEMP:  11; 6HR MAX TEMP:  24;

WAUPACA        MOSUNNY   29  20  68 CALM      30.29S
6HR MIN TEMP:  15; 6HR MAX TEMP:  31;

WAUTOMA        PTSUNNY   28  18  66 CALM      30.29F
6HR MIN TEMP:  14; 6HR MAX TEMP:  28;

WISC RAPIDS    CLOUDY    25  18  74 SE5       30.28F WCI  19
6HR MIN TEMP:  22; 6HR MAX TEMP:  25;

CAMP DOUGLAS   CLOUDY    25  25 100 S6        30.28F WCI  18
$$

WIZ011>013-019>022-031-037>040-048>050-191900-
NORTHEAST WISCONSIN

CITY           SKY/WX    TMP DP  RH WIND       PRES   REMARKS
ANTIGO         SUNNY     24  18  77 CALM      30.22F
6HR MIN TEMP:   7; 6HR MAX TEMP:  25;

SHAWANO        SUNNY     28  21  74 CALM      30.28F
6HR MIN TEMP:  14; 6HR MAX TEMP:  29;

OCONTO         SUNNY     29  21  71 CALM      30.28F
6HR MIN TEMP:  13; 6HR MAX TEMP:  29;

STURGEON BAY   PTSUNNY   28  21  74 N5        30.28F WCI  23
6HR MIN TEMP:  18; 6HR MAX TEMP:  28;

GREEN BAY      SUNNY     28  23  81 CALM      30.29F
6HR MIN TEMP:  16; 6HR MAX TEMP:  29;

MANITOWOC      CLOUDY    31  22  69 CALM      30.29S
6HR MIN TEMP:  21; 6HR MAX TEMP:  35;

APPLETON       PTSUNNY   28  19  69 CALM      30.28F
CLINTONVILLE   SUNNY     30  21  69 CALM      30.28F
OSHKOSH        MOSUNNY   29  20  69 VRB3      30.28F
6HR MIN TEMP:  16; 6HR MAX TEMP:  29;

$$

WIZ032>034-041-042-053>061-191900-
SOUTHWEST WISCONSIN

CITY           SKY/WX    TMP DP  RH WIND       PRES   REMARKS
LA CROSSE      CLOUDY    30  19  63 SW7       30.29F WCI  23
6HR MIN TEMP:  23; 6HR MAX TEMP:  30;

SPARTA         PTSUNNY   29  19  66 CALM      30.29S
6HR MIN TEMP:  24; 6HR MAX TEMP:  29;

VIROQUA        CLOUDY    27  21  78 S6        30.25F WCI  20
6HR MIN TEMP:  22; 6HR MAX TEMP:  27;

BOSCOBEL       CLOUDY    30  19  63 S5        30.30F WCI  25
6HR MIN TEMP:  25; 6HR MAX TEMP:  29;

PRAIRIE DU CHI CLOUDY    28  19  69 SE3       30.29F
6HR MIN TEMP:  26; 6HR MAX TEMP:  28;

PLATTEVILLE    CLOUDY    27  20  75 CALM      30.29F
6HR MIN TEMP:  22; 6HR MAX TEMP:  28;

$$

WIZ056-057-062-063-064-067-068-191900-
SOUTH CENTRAL WISCONSIN

CITY           SKY/WX    TMP DP  RH WIND       PRES   REMARKS
REEDSBURG      CLOUDY    24  20  84 S3        30.29S
6HR MIN TEMP:  23; 6HR MAX TEMP:  25;

BARABOO/DELLS  CLOUDY    24  20  86 S5        30.29S WCI  18
6HR MIN TEMP:  23; 6HR MAX TEMP:  24;

LONE ROCK      CLOUDY    30  18  60 CALM      30.31F
6HR MIN TEMP:  28; 6HR MAX TEMP:  31;

MINERAL POINT  CLOUDY    28  21  74 SE3       30.27F
MADISON        CLOUDY    26  19  74 CALM      30.29F
6HR MIN TEMP:  25; 6HR MAX TEMP:  27;

MIDDLETON      CLOUDY    27  21  78 W5        30.30F WCI  22
6HR MIN TEMP:  26; 6HR MAX TEMP:  27;

WATERTOWN      CLOUDY    28  19  69 CALM      30.29S
6HR MIN TEMP:  24; 6HR MAX TEMP:  28;

MONROE         CLOUDY    27  23  86 CALM      30.28F
JANESVILLE     CLOUDY    28  21  74 CALM      30.30F
$$

WIZ051-052-058>065-066-070>072-191900-
SOUTHEAST WISCONSIN

CITY           SKY/WX    TMP DP  RH WIND       PRES   REMARKS
MILWAUKEE      CLOUDY    30  18  60 SW7       30.29F WCI  23
6HR MIN TEMP:  25; 6HR MAX TEMP:  30;

WAUKESHA       CLOUDY    27  18  69 MISG      30.30S
MILWAUKEE/TIMM CLOUDY    30  18  59 W3        30.29F
RACINE         CLOUDY    30  19  63 W7        30.31S WCI  23
6HR MIN TEMP:  27; 6HR MAX TEMP:  30;

BURLINGTON     CLOUDY    27  17  66 SW3       30.29F
6HR MIN TEMP:  24; 6HR MAX TEMP:  27;

KENOSHA        CLOUDY    29  20  69 W5        30.29F WCI  24
6HR MIN TEMP:  27; 6HR MAX TEMP:  29;

FOND DU LAC    PTSUNNY   29  20  69 VRB3      30.29S
6HR MIN TEMP:  15; 6HR MAX TEMP:  30;

SHEBOYGAN      CLOUDY    30  20  66 NW5       30.28S WCI  25
6HR MIN TEMP:  23; 6HR MAX TEMP:  30;

WEST BEND      CLOUDY    30  19  64 W5        30.27F WCI  25
JUNEAU         CLOUDY    26  18  69 CALM      30.30S
6HR MIN TEMP:  21; 6HR MAX TEMP:  27;

$$

LSZ147-162-191900-
LAKE SUPERIOR

STATION/POSITION TIME  TEMP    WIND        PRES    WAVE
                       AIR SEA DIR/SP/G            HT/PER
                 (UTC) (F)     (DEG/KT/KT) (MB)    (FT/S)
DEVILS ISLAND    1800   24     200/  3/  5 1025.7F
PORT WING        1740   24     160/  5/  7 1024.7F
SAXON HARBOR     1700   24        CALM     1025.1F
$$

LMZ867-665-643>646-191900-
LAKE MICHIGAN

STATION/POSITION TIME  TEMP    WIND        PRES    WAVE
                       AIR SEA DIR/SP/G            HT/PER



USA.gov is the U.S. government's official web portal to all federal, state and local government web resources and services.